Total_Precipitation_Accumulation
0.00 0.00 0.00 0.00 0.00 0.00 0.00 0.00 0.00 0.00 0.00 0.00 0.00 0.00 0.00 0.00 0.00 0.00 0.02 0.06 0.13 0.35 0.14 0.04 0.02 0.04 0.00 0.00 0.01 0.04 0.08 0.02 0.01 0.00 0.00 0.00 0.00 0.00 0.00 0.01 0.01 0.01 0.02
0.00 0.00 0.00 0.00 0.00 0.00 0.00 0.00 0.00 0.00 0.00 0.00 0.00 0.00 0.00 0.00 0.00 0.01 0.02 0.05 0.16 0.28 0.10 0.09 0.07 0.03 0.01 0.00 0.01 0.05 0.06 0.01 0.01 0.00 0.00 0.00 0.00 0.00 0.00 0.01 0.01 0.01 0.01
0.00 0.00 0.00 0.00 0.00 0.00 0.00 0.00 0.00 0.00 0.00 0.00 0.00 0.00 0.00 0.00 0.01 0.01 0.04 0.07 0.15 0.19 0.07 0.08 0.10 0.08 0.04 0.01 0.03 0.05 0.04 0.02 0.00 0.00 0.00 0.00 0.00 0.00 0.00 0.00 0.01 0.01 0.01
0.00 0.00 0.00 0.00 0.00 0.00 0.00 0.00 0.00 0.00 0.00 0.00 0.02 0.01 0.00 0.01 0.02 0.04 0.07 0.08 0.15 0.17 0.09 0.11 0.10 0.08 0.04 0.02 0.04 0.03 0.02 0.01 0.00 0.00 0.00 0.00 0.00 0.01 0.00 0.00 0.01 0.01 0.01
0.00 0.00 0.00 0.00 0.00 0.00 0.00 0.00 0.00 0.00 0.00 0.00 0.04 0.05 0.01 0.03 0.05 0.04 0.11 0.10 0.15 0.16 0.13 0.13 0.11 0.07 0.02 0.01 0.04 0.01 0.02 0.02 0.00 0.00 0.00 0.01 0.02 0.02 0.02 0.01 0.01 0.01 0.00
0.00 0.00 0.00 0.00 0.00 0.00 0.00 0.00 0.00 0.00 0.00 0.00 0.02 0.05 0.04 0.02 0.04 0.05 0.13 0.27 0.42 0.35 0.10 0.13 0.11 0.07 0.04 0.02 0.04 0.02 0.03 0.01 0.00 0.00 0.00 0.03 0.03 0.02 0.00 0.00 0.00 0.01 0.02
0.00 0.00 0.00 0.00 0.00 0.00 0.00 0.00 0.00 0.00 0.00 0.00 0.00 0.03 0.07 0.05 0.08 0.09 0.18 0.38 0.35 0.36 0.21 0.13 0.07 0.07 0.04 0.04 0.05 0.03 0.02 0.00 0.00 0.00 0.01 0.01 0.01 0.00 0.00 0.00 0.01 0.03 0.03
0.00 0.00 0.00 0.00 0.00 0.00 0.01 0.01 0.01 0.00 0.00 0.00 0.02 0.08 0.16 0.20 0.28 0.41 0.33 0.24 0.24 0.31 0.26 0.23 0.12 0.09 0.08 0.09 0.04 0.02 0.01 0.00 0.00 0.00 0.01 0.00 0.00 0.00 0.00 0.00 0.02 0.02 0.01
0.00 0.00 0.00 0.00 0.00 0.00 0.00 0.01 0.01 0.01 0.01 0.00 0.06 0.04 0.04 0.11 0.25 0.36 0.36 0.25 0.22 0.24 0.28 0.28 0.27 0.23 0.15 0.08 0.03 0.01 0.00 0.00 0.01 0.01 0.00 0.00 0.01 0.00 0.00 0.01 0.01 0.00 0.00
0.00 0.00 0.00 0.00 0.00 0.00 0.00 0.01 0.01 0.01 0.01 0.01 0.03 0.02 0.01 0.03 0.70 0.58 0.83 0.58 0.32 0.23 0.17 0.15 0.16 0.25 0.26 0.16 0.09 0.02 0.00 0.02 0.02 0.02 0.01 0.02 0.06 0.01 0.02 0.03 0.02 0.01 0.01
0.00 0.00 0.00 0.00 0.00 0.00 0.00 0.00 0.01 0.01 0.01 0.00 0.01 0.02 0.00 0.00 0.22 0.62 1.44 1.09 0.77 0.40 0.23 0.18 0.23 0.31 0.35 0.32 0.21 0.11 0.01 0.02 0.04 0.03 0.03 0.17 0.18 0.10 0.08 0.07 0.04 0.02 0.01
0.00 0.00 0.00 0.00 0.00 0.01 0.01 0.00 0.00 0.00 0.00 0.00 0.00 0.00 0.00 0.00 0.00 0.11 0.99 1.83 1.95 1.24 0.66 0.50 0.34 0.35 0.38 0.20 0.27 0.23 0.05 0.03 0.06 0.08 0.05 0.40 0.26 0.19 0.13 0.07 0.05 0.03 0.03
0.00 0.00 0.00 0.00 0.00 0.01 0.02 0.01 0.00 0.00 0.00 0.00 0.00 0.00 0.00 0.00 0.00 0.01 0.22 1.29 2.82 3.25 2.11 0.98 0.44 0.36 0.23 0.16 0.24 0.35 0.09 0.04 0.05 0.09 0.19 0.57 0.27 0.27 0.19 0.09 0.06 0.08 0.08
0.00 0.00 0.00 0.00 0.02 0.05 0.04 0.03 0.00 0.00 0.00 0.00 0.00 0.00 0.00 0.00 0.00 0.01 0.12 0.70 1.51 2.27 2.16 1.08 0.37 0.23 0.15 0.24 0.29 0.33 0.16 0.05 0.08 0.07 0.18 0.58 0.33 0.28 0.24 0.16 0.14 0.14 0.14
0.00 0.00 0.00 0.01 0.03 0.09 0.10 0.07 0.01 0.00 0.00 0.00 0.00 0.00 0.00 0.00 0.00 0.00 0.02 0.11 0.32 0.67 0.79 0.88 0.51 0.34 0.36 0.39 0.32 0.38 0.19 0.09 0.06 0.08 0.14 0.47 0.45 0.33 0.28 0.23 0.22 0.16 0.11
0.00 0.00 0.00 0.01 0.05 0.13 0.13 0.11 0.05 0.00 0.00 0.00 0.01 0.01 0.06 0.04 0.00 0.00 0.00 0.01 0.06 0.16 0.16 0.15 0.13 0.16 0.29 0.33 0.25 0.27 0.19 0.19 0.12 0.02 0.14 0.26 0.34 0.30 0.25 0.22 0.15 0.09 0.04
0.00 0.00 0.00 0.01 0.04 0.15 0.18 0.16 0.11 0.04 0.02 0.02 0.03 0.05 0.07 0.07 0.01 0.00 0.01 0.00 0.02 0.03 0.05 0.05 0.04 0.04 0.06 0.16 0.17 0.14 0.09 0.10 0.15 0.11 0.05 0.09 0.32 0.21 0.20 0.14 0.06 0.02 0.01
0.00 0.01 0.01 0.01 0.08 0.08 0.24 0.18 0.25 0.16 0.10 0.08 0.09 0.11 0.10 0.08 0.03 0.01 0.02 0.00 0.03 0.02 0.01 0.03 0.06 0.04 0.01 0.03 0.06 0.17 0.14 0.09 0.10 0.14 0.05 0.08 0.35 0.41 0.23 0.13 0.07 0.01 0.00
0.00 0.01 0.01 0.00 0.04 0.14 0.09 0.25 0.25 0.33 0.24 0.12 0.10 0.15 0.19 0.12 0.06 0.02 0.01 0.01 0.01 0.02 0.00 0.00 0.01 0.04 0.02 0.01 0.02 0.04 0.12 0.16 0.16 0.12 0.07 0.07 0.11 0.26 0.34 0.15 0.07 0.02 0.01
0.00 0.00 0.00 0.00 0.00 0.07 0.12 0.16 0.27 0.25 0.45 0.47 0.34 0.17 0.18 0.18 0.14 0.06 0.03 0.02 0.01 0.01 0.00 0.00 0.00 0.00 0.01 0.01 0.12 0.15 0.04 0.07 0.14 0.15 0.09 0.09 0.10 0.12 0.19 0.19 0.07 0.01 0.00
0.00 0.00 0.00 0.00 0.00 0.01 0.04 0.12 0.12 0.27 0.35 0.65 0.89 0.78 0.42 0.24 0.14 0.10 0.06 0.03 0.02 0.02 0.02 0.00 0.01 0.01 0.00 0.00 0.08 0.43 0.41 0.16 0.15 0.14 0.21 0.22 0.19 0.16 0.11 0.10 0.04 0.00 0.00
0.00 0.00 0.00 0.00 0.00 0.00 0.01 0.04 0.09 0.09 0.21 0.42 0.61 0.77 0.79 0.79 0.60 0.28 0.15 0.07 0.04 0.03 0.03 0.01 0.01 0.01 0.01 0.00 0.04 0.16 0.56 0.59 0.24 0.16 0.20 0.29 0.27 0.17 0.11 0.06 0.05 0.01 0.00
0.00 0.00 0.00 0.00 0.00 0.00 0.00 0.02 0.03 0.05 0.13 0.24 0.49 0.66 0.63 0.58 0.68 0.83 0.52 0.26 0.11 0.08 0.05 0.03 0.02 0.00 0.01 0.01 0.03 0.05 0.13 0.39 0.47 0.25 0.16 0.15 0.25 0.22 0.10 0.04 0.02 0.00 0.00
0.01 0.01 0.00 0.00 0.00 0.00 0.00 0.00 0.02 0.03 0.04 0.08 0.19 0.41 0.64 0.74 0.60 0.58 0.82 0.72 0.41 0.21 0.15 0.07 0.04 0.05 0.02 0.01 0.02 0.02 0.02 0.04 0.14 0.30 0.31 0.19 0.12 0.19 0.18 0.09 0.04 0.01 0.00
0.01 0.01 0.01 0.00 0.00 0.00 0.00 0.00 0.01 0.02 0.05 0.08 0.08 0.18 0.34 0.56 0.68 0.67 0.70 0.75 0.69 0.60 0.37 0.29 0.13 0.09 0.10 0.06 0.03 0.04 0.02 0.01 0.02 0.09 0.20 0.24 0.18 0.12 0.11 0.11 0.07 0.02 0.00
0.01 0.01 0.01 0.01 0.01 0.01 0.01 0.01 0.01 0.01 0.03 0.07 0.10 0.10 0.16 0.30 0.49 0.61 0.59 0.62 0.71 0.69 0.69 0.56 0.41 0.21 0.14 0.13 0.07 0.03 0.03 0.01 0.01 0.00 0.02 0.06 0.15 0.16 0.10 0.04 0.02 0.01 0.00